Location: Ostrava
(49.8330°N, 18.2830°E)
Time: 11:39:29
(UTC+02:00)

Iridium 7 - Visible Passes

Search period start: 26 May 2015 00:00
Search period end: 05 June 2015 00:00
Orbit: 776 x 779 km, 86.4° (Epoch: 25 May)

Date Brightness Start Highest point End Pass type
(mag) Time Alt. Az. Time Alt. Az. Time Alt. Az.
26 May 6.5 02:22:51 12° SSE 02:27:26 44° E 02:32:24 10° NNE visible
26 May 6.6 04:03:52 10° SW 04:08:23 29° WNW 04:12:52 10° NNW visible
27 May 7.2 01:49:52 10° SE 01:54:06 26° E 01:58:26 10° NNE visible
27 May 6.0 03:30:02 12° SSW 03:34:37 47° W 03:39:40 10° N visible
28 May 7.8 01:17:51 10° ESE 01:20:51 16° ENE 01:24:03 10° NE visible
28 May 5.5 02:56:43 16° S 03:00:59 80° W 03:06:15 10° N visible
29 May 5.9 02:23:24 16° SSE 02:27:28 61° E 02:32:38 10° N visible
30 May 6.7 01:50:04 13° SE 01:54:04 36° E 01:58:50 10° NNE visible
30 May 6.4 03:30:33 12° SW 03:34:51 35° WNW 03:39:37 10° N visible
31 May 7.4 01:16:56 10° SE 01:20:46 22° E 01:24:45 10° NNE visible
31 May 5.7 02:57:12 17° SSW 03:01:08 58° W 03:06:18 10° N visible
01 Jun 7.9 00:45:23 10° E 00:47:35 13° ENE 00:50:01 10° NE visible
01 Jun 5.5 02:23:51 20° S 02:27:33 83° E 02:32:49 10° N visible
02 Jun 6.2 01:50:30 18° SSE 01:54:05 49° E 01:59:08 10° NNE visible
02 Jun 6.8 03:30:58 11° SW 03:35:08 26° WNW 03:39:27 10° NNW visible
03 Jun 7.0 01:17:08 14° SE 01:20:43 29° E 01:25:14 10° NNE visible
03 Jun 6.1 02:57:36 17° SW 03:01:19 42° W 03:06:18 10° N visible
04 Jun 7.6 00:44:08 10° ESE 00:47:28 18° ENE 00:50:58 10° NE visible
04 Jun 5.6 02:24:14 22° SSW 02:27:40 72° W 02:32:55 10° N visible
